Location: Jackson Park
(37.2862°N, 79.9123°W)
Time: 11:35:02
(UTC+00:00)

S-56A Canister/Altair - Pass Details

Date: 10 May 2026
Orbit: 632 x 2484 km, 38.9° (Epoch: 9 June)

Event Time Altitude Azimuth Distance (km) Brightness Sun altitude
Rises 05:15:59 0° 271° (W) 3,014 - -35.1°
Reaches altitude 10° 05:18:05 10° 273° (W) 2,191 - -35.1°
Maximum altitude 05:23:04 76° 360° (N) 891 - -35.1°
Exits shadow 05:27:53 20° 84° (E) 2,232 9.9 -35.0°
Drops below altitude 10° 05:30:09 10° 86° (E) 3,071 10.6 -35.0°
Sets 05:33:34 0° 88° (E) 4,335 11.5 -34.9°
